EW2998 Weather Reports


time (UTC)temp
F
wind
direction
speed
knots
gust
knots
rain 1hr
in
rain 24hr
in
rain mn
in
humidity
%
barometer
mb
20260504050504 44 0 0.0 0.0 0.00 0.00 0.00 65 1013.2
20260504050004 44 0 0.0 0.0 0.00 0.00 0.00 65 1013.2
20260504045503 44 0 0.0 0.0 0.00 0.00 0.00 65 1013.4
20260504045003 44 0 0.0 0.0 0.00 0.00 0.00 64 1013.3
20260504044003 45 0 0.0 0.0 0.00 0.00 0.00 63 1013.3
20260504043003 45 0 0.0 0.0 0.00 0.00 0.00 61 1013.2
20260504042003 45 0 0.0 0.0 0.00 0.00 0.00 61 1013.2
20260504041003 46 0 0.0 0.0 0.00 0.00 0.00 61 1013.1
20260504040504 46 0 0.0 0.0 0.00 0.00 0.00 61 1013.0
20260504040004 46 0 0.0 0.0 0.00 0.00 0.00 61 1013.0
20260504035504 46 0 0.0 0.0 0.00 0.00 0.00 61 1012.9
20260504034503 46 0 0.0 0.0 0.00 0.00 0.00 61 1012.9
20260504033504 46 0 0.0 0.0 0.00 0.00 0.00 61 1012.9
20260504033005 46 0 0.0 0.0 0.00 0.00 0.00 60 1012.9
20260504032504 46 0 0.0 0.0 0.00 0.00 0.00 59 1012.9
20260504032004 46 345 0.0 0.9 0.00 0.00 0.00 58 1012.9
20260504031503 47 345 0.0 0.9 0.00 0.00 0.00 58 1012.9
20260504031003 47 0 0.0 0.0 0.00 0.00 0.00 58 1012.9
20260504025506 47 346 0.0 0.9 0.00 0.00 0.00 57 1012.7
20260504025003 47 346 0.0 0.9 0.00 0.00 0.00 58 1012.8
20260504024503 47 0 0.0 0.0 0.00 0.00 0.00 58 1012.7
20260504024003 47 0 0.0 0.0 0.00 0.00 0.00 57 1012.6
20260504023503 47 0 0.0 0.0 0.00 0.00 0.00 57 1012.6
20260504022501 48 0 0.0 0.0 0.00 0.00 0.00 57 1012.7
20260504022002 48 0 0.0 0.0 0.00 0.00 0.00 57 1012.7
20260504021502 48 0 0.0 0.0 0.00 0.00 0.00 57 1012.7
20260504021002 48 0 0.0 0.0 0.00 0.00 0.00 57 1012.7
20260504020502 48 0 0.0 0.0 0.00 0.00 0.00 56 1012.7
20260504020004 48 0 0.0 0.0 0.00 0.00 0.00 56 1012.6
20260504014502 48 0 0.0 0.0 0.00 0.00 0.00 56 1012.5
20260504014003 48 0 0.0 0.0 0.00 0.00 0.00 55 1012.5
20260504013502 49 345 0.0 0.9 0.00 0.00 0.00 54 1012.5
20260504013002 49 345 0.0 0.9 0.00 0.00 0.00 54 1012.5
20260504012002 49 0 0.0 0.0 0.00 0.00 0.00 52 1012.3
20260504011502 49 346 0.0 0.9 0.00 0.00 0.00 54 1012.2
20260504011002 49 346 0.0 0.9 0.00 0.00 0.00 55 1012.1
20260504010503 49 346 0.0 0.9 0.00 0.00 0.00 53 1012.1
20260504010003 50 346 0.0 0.9 0.00 0.00 0.00 52 1012.2
20260504005502 50 346 0.0 0.9 0.00 0.00 0.00 51 1012.2
20260504005002 50 346 0.0 0.9 0.00 0.00 0.00 51 1012.1
20260504004502 51 0 0.0 0.0 0.00 0.00 0.00 50 1012.0
20260504002502 52 353 0.0 0.9 0.00 0.00 0.00 49 1011.8
20260504002002 52 353 0.0 0.9 0.00 0.00 0.00 48 1011.8
20260504001502 52 353 0.0 0.9 0.00 0.00 0.00 48 1011.7
20260504001004 53 353 0.0 0.9 0.00 0.00 0.00 46 1011.7
20260504000502 54 353 0.0 0.9 0.00 0.00 0.00 45 1011.5
20260503235502 55 339 0.0 0.9 0.00 0.00 0.00 42 1011.5
20260503235002 55 322 0.0 1.7 0.00 0.00 0.00 42 1011.3
20260503234503 55 324 0.0 1.7 0.00 0.00 0.00 41 1011.3
20260503234001 55 328 0.0 0.9 0.00 0.00 0.00 42 1011.3
20260503233502 56 325 0.0 1.7 0.00 0.00 0.00 42 1011.2
20260503233002 56 328 0.0 1.7 0.00 0.00 0.00 41 1011.2
20260503232502 57 317 0.0 2.6 0.00 0.00 0.00 40 1011.3
20260503232002 58 310 0.9 2.6 0.00 0.00 0.00 38 1011.3
20260503231502 59 319 0.9 3.5 0.00 0.00 0.00 38 1011.3
20260503231002 59 322 0.9 3.5 0.00 0.00 0.00 37 1011.3
20260503230502 59 317 0.9 6.1 0.00 0.00 0.00 36 1011.3
20260503230002 59 320 1.7 6.1 0.00 0.00 0.00 37 1011.2
20260503224502 59 327 2.6 8.7 0.00 0.00 0.00 34 1011.1
20260503223502 59 320 2.6 7.0 0.00 0.00 0.00 35 1011.2
20260503222502 59 323 2.6 7.0 0.00 0.00 0.00 34 1011.1
20260503221505 59 327 2.6 7.0 0.00 0.00 0.00 35 1011.1
20260503221002 59 335 2.6 7.0 0.00 0.00 0.00 34 1011.1
20260503220502 59 341 2.6 8.7 0.00 0.00 0.00 35 1011.3
20260503220002 59 340 2.6 8.7 0.00 0.00 0.00 35 1011.4
20260503215502 59 336 2.6 7.8 0.00 0.00 0.00 35 1011.3
20260503214502 60 325 4.3 11.3 0.00 0.00 0.00 34 1011.2
20260503213502 60 338 2.6 7.8 0.00 0.00 0.00 36 1011.2
20260503213002 59 334 2.6 7.8 0.00 0.00 0.00 36 1011.2
20260503212004 58 330 1.7 5.2 0.00 0.00 0.00 36 1011.1
20260503211502 58 319 1.7 7.0 0.00 0.00 0.00 35 1011.2
20260503210502 60 339 2.6 9.6 0.00 0.00 0.00 35 1011.2
20260503210002 60 336 2.6 9.6 0.00 0.00 0.00 33 1011.2
20260503205502 60 321 2.6 8.7 0.00 0.00 0.00 36 1011.1
20260503205002 60 329 2.6 9.6 0.00 0.00 0.00 35 1011.2
20260503204502 59 334 3.5 9.6 0.00 0.00 0.00 36 1011.2
20260503204002 59 332 4.3 13.9 0.00 0.00 0.00 35 1011.3
20260503203503 59 328 3.5 13.9 0.00 0.00 0.00 36 1011.3
20260503203002 59 329 4.3 11.3 0.00 0.00 0.00 35 1011.3
20260503202503 59 328 3.5 11.3 0.00 0.00 0.00 34 1011.3
20260503202002 59 343 2.6 7.8 0.00 0.00 0.00 34 1011.4
20260503201502 58 355 3.5 11.3 0.00 0.00 0.00 38 1011.4
20260503201002 58 340 4.3 13.0 0.00 0.00 0.00 35 1011.5
20260503200502 58 323 5.2 13.0 0.00 0.00 0.00 34 1011.4
20260503200002 58 320 4.3 11.3 0.00 0.00 0.00 36 1011.5
20260503195002 58 343 3.5 9.6 0.00 0.00 0.00 34 1011.5
20260503194501 58 346 3.5 9.6 0.00 0.00 0.00 38 1011.6
20260503194003 58 342 3.5 11.3 0.00 0.00 0.00 38 1011.6
20260503193502 58 331 4.3 11.3 0.00 0.00 0.00 35 1011.7
20260503193002 59 322 3.5 11.3 0.00 0.00 0.00 36 1011.8
20260503192502 58 334 3.5 9.6 0.00 0.00 0.00 39 1011.8
20260503192002 58 347 4.3 11.3 0.00 0.00 0.00 39 1011.8
20260503191502 57 6 4.3 11.3 0.00 0.00 0.00 36 1011.9
20260503191002 57 5 3.5 9.6 0.00 0.00 0.00 36 1011.9
20260503190502 58 336 3.5 9.6 0.00 0.00 0.00 35 1011.9
20260503190002 57 321 4.3 9.6 0.00 0.00 0.00 38 1012.0
20260503185503 57 318 3.5 9.6 0.00 0.00 0.00 40 1012.2
20260503185002 57 315 4.3 12.2 0.00 0.00 0.00 37 1012.3
20260503184502 57 325 4.3 12.2 0.00 0.00 0.00 38 1012.3
20260503184002 56 336 5.2 13.0 0.00 0.00 0.00 40 1012.3
20260503183502 56 339 5.2 13.0 0.00 0.00 0.00 39 1012.4
20260503183002 56 347 5.2 13.9 0.00 0.00 0.00 38 1012.3
20260503181502 56 337 3.5 13.9 0.00 0.00 0.00 41 1012.3
20260503181004 56 330 3.5 11.3 0.00 0.00 0.00 42 1012.3
20260503180502 55 340 3.5 11.3 0.00 0.00 0.00 38 1012.4
20260503180002 55 344 4.3 11.3 0.00 0.00 0.00 39 1012.5
20260503175502 55 339 4.3 14.8 0.00 0.00 0.00 39 1012.8
20260503175002 55 317 3.5 14.8 0.00 0.00 0.00 40 1012.4
20260503174503 54 327 4.3 13.0 0.00 0.00 0.00 41 1012.6
20260503173502 54 339 5.2 13.0 0.00 0.00 0.00 40 1012.6
20260503173002 54 339 5.2 13.0 0.00 0.00 0.00 41 1012.7
20260503172502 54 331 5.2 18.2 0.00 0.00 0.00 41 1012.6
20260503172002 54 331 5.2 18.2 0.00 0.00 0.00 41 1012.8
20260503171502 54 333 4.3 12.2 0.00 0.00 0.00 42 1012.7
20260503171002 54 335 5.2 12.2 0.00 0.00 0.00 39 1012.8
20260503170502 53 340 6.1 14.8 0.00 0.00 0.00 39 1013.0
20260503151002 49 8 3.5 10.4 0.00 0.00 0.00 47 1013.5
20260503150502 49 11 4.3 13.9 0.00 0.00 0.00 46 1013.4
20260503131002 46 351 4.3 13.9 0.00 0.00 0.00 60 1013.3
20260503130503 45 354 5.2 13.9 0.00 0.00 0.00 59 1013.3
20260503110502 41 344 1.7 7.8 0.00 0.00 0.00 66 1012.3
20260503090502 42 337 1.7 8.7 0.00 0.00 0.00 72 1010.9
20260503081503 42 332 1.7 7.0 0.00 0.00 0.00 73 1010.7
20260503081003 42 331 1.7 7.0 0.00 0.00 0.00 73 1010.7
20260503080502 42 328 1.7 6.1 0.00 0.00 0.00 73 1010.6
20260503072505 42 340 1.7 7.0 0.00 0.00 0.00 74 1010.2
20260503072003 42 338 1.7 7.0 0.00 0.00 0.00 74 1010.2
20260503071502 42 338 1.7 7.0 0.00 0.00 0.00 75 1010.3
20260503071002 42 339 1.7 7.0 0.00 0.00 0.00 75 1010.2